Meath Environmental Platform

Observations for Trim Market St

Time AQI Temp °C Hum % Pres Pa CO μg/m³ H₂S μg/m³ NO μg/m³ NO₂ μg/m³ O₃ μg/m³ SO₂ μg/m³ PM1 μg/m³ PM2.5 μg/m³ PM10 μg/m³
Sunday 23 August 2026
21:00 3 16.1 57 57,593 0.21 0 1.33 30.45 49.54 0 1.43 4.69 6.82
20:55 3 16.2 56 57,215 0.25 0 1.3 30.39 51.49 0 2.14 5.23 6.82
20:53 3 16.3 56 57,092 0.21 0.71 1.19 31.34 58.34 0 0.71 4.24 6.82
20:52 3 16.3 55 56,949 0.19 0.08 1.18 31 58.22 0 0.71 3.24 3.96
20:51 3 16.4 55 56,817 0.21 0 1.27 28.49 57.38 0 1.43 4.76 8.96
20:50 3 16.4 55 56,725 0.32 0 1.21 28.85 54.11 0 2.14 4.77 6.81
20:49 3 16.4 55 56,660 0.67 0.29 1.21 35.57 43.64 0 0.71 3.25 4.67
20:48 3 16.5 55 56,608 0.31 0 1.27 40.02 37.75 0 0.71 3.77 5.38
20:47 3 16.5 55 56,549 0.15 0 1.26 26.57 58.62 0 0.71 4.28 6.09
20:46 3 16.5 55 56,504 0.13 0 1.14 20.93 65.86 0 0.71 2.76 3.22
20:45 3 16.6 55 56,470 0.14 0 1.16 23 64.46 0 0.71 3.27 3.94
20:44 3 16.6 54 56,433 0.13 0 1.19 22.56 66.58 0 0 2.26 2.5
20:43 3 16.6 54 56,382 0.14 0 1.1 23.41 65.25 0 0 2.26 2.5
20:42 3 16.7 54 56,327 0.13 0 1.06 23.28 66.73 0 0.71 2.78 3.21
20:41 3 16.7 54 56,286 0.14 0 1.18 23.28 67.12 0 0 2.27 2.49
20:40 3 16.7 54 56,237 0.13 0 1.17 19.78 73.08 0 0 2.28 3.92
20:38 3 16.8 54 56,192 0.1 0 1.26 22.25 68.66 0 0 2.29 3.19
20:37 3 16.8 54 56,149 0.12 0 1.25 24.39 62.6 0 0 2.29 2.47
20:33 3 17 53 55,987 0.21 0 1.08 24.94 60.31 0 0 2.82 3.17
20:30 3 17.1 53 55,925 0.08 0 0.93 16.19 80.02 0 0 2.32 2.43